Location: Raleigh
(35.7720°N, 78.6390°W)
Time: 15:10:21
(UTC-04:00)

JAS-2 - Visible Passes

Search period start: 29 May 2016 00:00
Search period end: 08 June 2016 00:00
Orbit: 801 x 1321 km, 98.6° (Epoch: 29 May)

Date Brightness Start Highest point End Pass type
(mag) Time Alt. Az. Time Alt. Az. Time Alt. Az.
29 May 11.7 00:40:26 10° NE 00:44:15 15° E 00:44:16 15° E visible
29 May 9.6 02:22:49 10° N 02:30:11 80° WNW 02:30:44 74° SW visible
29 May 11.7 04:10:37 10° NNW 04:13:48 13° NW 04:16:52 10° W visible
30 May 10.5 01:28:20 10° NNE 01:35:00 40° E 01:35:00 40° E visible
30 May 10.7 03:13:28 10° N 03:19:49 34° WNW 03:21:29 30° W visible
31 May 11.7 00:36:05 10° ENE 00:39:14 13° E 00:39:15 13° E visible
31 May 9.6 02:18:00 10° NNE 02:25:16 85° WNW 02:25:44 78° SW visible
31 May 11.7 04:05:33 10° NNW 04:08:58 14° NW 04:12:13 10° W visible
01 Jun 10.6 01:23:37 10° NNE 01:29:59 36° E 01:29:59 36° E visible
01 Jun 10.5 03:08:35 10° N 03:14:57 36° WNW 03:16:28 32° W visible
02 Jun 11.8 00:31:57 10° ENE 00:34:13 12° E 00:34:14 12° E visible
02 Jun 9.5 02:13:11 10° NNE 02:20:21 90° ESE 02:20:43 81° SSW visible
02 Jun 11.6 04:00:32 10° NNW 04:04:08 15° WNW 04:07:12 11° W visible
03 Jun 10.7 01:18:53 10° NNE 01:24:57 33° E 01:24:57 33° E visible
03 Jun 10.4 03:03:42 10° N 03:10:04 37° WNW 03:11:26 34° W visible
04 Jun 11.9 00:28:31 10° E 00:29:10 10° E 00:29:11 10° E visible
04 Jun 9.5 02:08:22 10° NNE 02:15:24 84° ESE 02:15:40 81° SSE visible
04 Jun 11.5 03:55:31 10° NNW 03:59:17 16° WNW 04:02:09 12° W visible
05 Jun 10.8 01:14:11 10° NE 01:19:54 30° E 01:19:54 30° E visible
05 Jun 10.3 02:58:49 10° N 03:05:10 40° WNW 03:06:23 36° W visible
06 Jun 9.5 02:03:33 10° NNE 02:10:27 78° ESE 02:10:37 78° ESE visible
06 Jun 11.4 03:50:31 10° NNW 03:54:26 16° WNW 03:57:06 13° W visible
07 Jun 10.9 01:09:30 10° NE 01:14:50 27° E 01:14:50 27° E visible
07 Jun 10.2 02:53:56 10° N 03:00:16 42° WNW 03:01:19 39° W visible
